Regional Weather Roundup
Issued by NWS Sioux Falls, SD

Home | Current Version | Previous Version | Text Only | Print | Product List | Glossary Off
Versions: 1 2 3 4 5 6 7 8 9 10 11 12 13 14 15 16 17 18 19 20 21 22 23 24 25 26 27 28 29 30 31 32 33 34 35 36 37 38 39 40 41 42 43 44 45 46 47 48 49 50

000
ASUS43 KFSD 182302
RWRFSD

WEATHER ROUNDUP FOR SE SOUTH DAKOTA/SW MINNESOTA/NW IOWA
NATIONAL WEATHER SERVICE SIOUX FALLS SD
600 PM CDT FRI APR 18 2014

NOTE: "FAIR" INDICATES FEW OR NO CLOUDS BELOW 12,000 FEET WITH NO
SIGNIFICANT WEATHER AND OR OBSTRUCTIONS TO VISIBILITY.


SDZ038>040-050-052>070-190000-
SOUTHEAST SOUTH DAKOTA

CITY           SKY/WX    TMP DP  RH WIND       PRES   REMARKS
CHAMBERLAIN      N/A     73  40  30 S30G39    29.77S
HURON          MOSUNNY   70  38  31 S23G37    29.83F
MADISON        FAIR      61  36  39 S26G37    29.95F
MITCHELL       PTSUNNY   70  41  34 S31G41    29.87F
SIOUX FALLS    PTSUNNY   63  36  36 S25G36    29.99F
WINNER         FAIR      73  39  29 S28G38    29.76F
YANKTON        MOSUNNY   68  39  34 S23G36    29.96F
$$

MNZ071-072-080-081-089-090-097-098-190000-
SOUTHWEST MINNESOTA

CITY           SKY/WX    TMP DP  RH WIND       PRES   REMARKS
FAIRMONT       SUNNY     59  30  33 SE17      30.17F
JACKSON        SUNNY     61  28  29 SE18G29   30.12F
LUVERNE        SUNNY     64  32  29 S23G31    30.02F
MARSHALL       SUNNY     63  36  36 SE22G35   30.04F
MONTEVIDEO     SUNNY     54  39  58 S22G32    30.10S
PIPESTONE      SUNNY     63  32  31 S24G33    30.00F
REDWOOD FALLS  MOSUNNY   57  38  48 SE25G41   30.11F
TRACY          SUNNY     61  36  39 SE26G36   30.06F
WINDOM         SUNNY     61  30  31 SE22G33   30.11F
WORTHINGTON    SUNNY     63  30  29 SE25G33   30.09F
$$

IAZ001>003-012>014-020>022-031-032-NEZ013-014-SDZ071-190000-
NORTHWEST IOWA

CITY           SKY/WX    TMP DP  RH WIND       PRES   REMARKS
CHEROKEE       SUNNY     65  33  29 S20G28    30.09F
DENISON        SUNNY     66  32  28 S21G26    30.10F
ESTHERVILLE    SUNNY     60  32  34 SE26G32   30.13F
SHELDON        SUNNY     64  36  34 S26G37    30.05F
SIOUX CITY     MOSUNNY   70  37  29 S23G31    30.05F
SPENCER        SUNNY     64  32  30 S25G37    30.11F
STORM LAKE     SUNNY     64  30  27 S22G28    30.11F
$$

ABBREVIATIONS USED IN REMARKS
   TC - TEMPERATURE IN CELSIUS
  WCI - WIND CHILL INDEX
   HX - HEAT INDEX
  VSB - VISIBILITY




USA.gov is the U.S. government's official web portal to all federal, state and local government web resources and services.